Location: Helion Bumpstead
(52.0500°N, 0.4000°E)
Time: 20:50:55
(UTC+00:00)

Gbstr 26 Del rocket - Pass Details

Date: 15 November 2025
Orbit: 489 x 1219 km, 51.8° (Epoch: 14 December)

Event Time Altitude Azimuth Distance (km) Brightness Sun altitude
Exits shadow 06:04:12 15° 278° (W) 1,922 4.9 -11.4°
Maximum altitude 06:08:34 76° 195° (SSW) 869 3.8 -10.7°
Drops below altitude 10° 06:15:00 10° 111° (ESE) 2,733 8.0 -9.8°
Sets 06:17:53 0° 110° (ESE) 3,793 9.5 -9.4°
